AD7CQ Weather Reports


time (UTC)temp
C
wind
direction
speed
KPH
gust
KPH
rain 1hr
cm
rain 24hr
cm
rain mn
cm
humidity
%
barometer
mb
20260505153013 17 4 1.6 4.8 0.00 0.00 0.00 62 1008.0
20260505151505 17 4 1.6 4.8 0.00 0.00 0.00 61 1007.9
20260505124526 12 10 0.0 4.8 0.00 0.00 0.00 74 1006.2
20260505123031 13 11 0.0 3.2 0.00 0.00 0.00 73 1006.1
20260505121522 13 11 0.0 4.8 0.00 0.00 0.00 73 1005.8
20260505120024 13 11 0.0 3.2 0.00 0.00 0.00 74 1005.5
20260505114517 13 11 1.6 3.2 0.00 0.00 0.00 74 1005.5
20260505113015 13 11 0.0 4.8 0.00 0.00 0.00 74 1005.4
20260505111519 13 10 0.0 4.8 0.00 0.00 0.00 75 1005.2
20260505101511 15 11 1.6 4.8 0.00 0.00 0.00 73 1004.3
20260505100003 15 11 0.0 1.6 0.00 0.00 0.00 71 1004.1
20260505094559 16 12 0.0 0.0 0.00 0.00 0.00 69 1004.0
20260505093103 16 11 0.0 3.2 0.00 0.00 0.00 68 1004.0
20260505091555 16 11 0.0 3.2 0.00 0.00 0.00 67 1004.0
20260505090051 17 11 0.0 6.4 0.00 0.00 0.00 65 1003.9
20260505084550 17 12 0.0 6.4 0.00 0.00 0.00 64 1003.9
20260505083048 17 11 1.6 4.8 0.00 0.00 0.00 64 1003.8
20260505081559 17 8 1.6 4.8 0.00 0.00 0.00 62 1003.8
20260505080051 18 8 0.0 1.6 0.00 0.00 0.00 60 1003.6
20260505074541 18 8 0.0 3.2 0.00 0.00 0.00 58 1003.5
20260505073040 18 8 0.0 3.2 0.00 0.00 0.00 57 1003.4
20260505071542 18 8 0.0 0.0 0.00 0.00 0.00 55 1003.3
20260505070031 19 8 0.0 1.6 0.00 0.00 0.00 54 1003.0
20260505064530 20 9 0.0 0.0 0.00 0.00 0.00 53 1002.9
20260505063033 20 8 0.0 3.2 0.00 0.00 0.00 51 1002.6
20260505061534 20 8 1.6 4.8 0.00 0.00 0.00 51 1002.5
20260505060029 20 8 1.6 8.0 0.00 0.00 0.00 51 1002.6
20260505054529 21 13 3.2 12.9 0.00 0.00 0.00 49 1002.5
20260505053037 22 4 0.0 3.2 0.00 0.00 0.00 44 1002.4
20260505051538 23 4 0.0 3.2 0.00 0.00 0.00 41 1002.2
20260505041526 25 47 1.6 6.4 0.00 0.00 0.00 35 1001.8
20260505040026 25 359 0.0 1.6 0.00 0.00 0.00 31 1001.6
20260505034527 26 359 0.0 1.6 0.00 0.00 0.00 30 1001.4
20260505033027 26 341 0.0 1.6 0.00 0.00 0.00 29 1001.3
20260505031535 27 359 0.0 1.6 0.00 0.00 0.00 28 1001.2
20260505030024 27 359 0.0 1.6 0.00 0.00 0.00 27 1001.1
20260505024524 28 359 0.0 3.2 0.00 0.00 0.00 26 1001.1
20260505023023 29 359 0.0 3.2 0.00 0.00 0.00 23 1001.1
20260505021524 30 359 1.6 3.2 0.00 0.00 0.00 21 1001.1
20260505020021 30 359 1.6 6.4 0.00 0.00 0.00 19 1001.3
20260505014520 31 328 1.6 4.8 0.00 0.00 0.00 19 1001.4
20260505013018 31 293 0.0 8.0 0.00 0.00 0.00 19 1001.5
20260505011525 32 347 1.6 9.7 0.00 0.00 0.00 18 1001.5
20260505010026 31 312 1.6 9.7 0.00 0.00 0.00 19 1001.7
20260505004515 31 231 0.0 6.4 0.00 0.00 0.00 20 1001.7
20260505003014 31 221 1.6 11.3 0.00 0.00 0.00 20 1001.7
20260505001513 31 29 0.0 0.0 0.00 0.00 0.00 20 1001.9
20260505000012 32 29 0.0 0.0 0.00 0.00 0.00 20 1001.9
20260504234507 31 30 0.0 0.0 0.00 0.00 0.00 21 1001.9
20260504233006 31 31 0.0 1.6 0.00 0.00 0.00 22 1002.1
20260504231504 31 20 0.0 4.8 0.00 0.00 0.00 22 1002.2
20260504230003 31 26 1.6 4.8 0.00 0.00 0.00 22 1002.3
20260504224500 32 30 1.6 6.4 0.00 0.00 0.00 21 1002.4
20260504223103 31 29 0.0 6.4 0.00 0.00 0.00 22 1002.6
20260504221606 31 35 0.0 3.2 0.00 0.00 0.00 22 1002.7
20260504220053 30 42 0.0 4.8 0.00 0.00 0.00 24 1002.9
20260504214559 30 23 1.6 8.0 0.00 0.00 0.00 23 1003.1
20260504213100 30 284 1.6 9.7 0.00 0.00 0.00 24 1003.4
20260504211548 30 359 1.6 6.4 0.00 0.00 0.00 24 1003.5
20260504210041 30 248 1.6 4.8 0.00 0.00 0.00 25 1003.8
20260504204538 29 359 1.6 8.0 0.00 0.00 0.00 25 1004.0
20260504203046 29 359 1.6 9.7 0.00 0.00 0.00 27 1004.1
20260504201532 29 274 1.6 6.4 0.00 0.00 0.00 28 1004.4
20260504200030 29 4 1.6 8.0 0.00 0.00 0.00 27 1004.5
20260504194537 28 29 1.6 12.9 0.00 0.00 0.00 28 1004.5
20260504193027 28 8 1.6 6.4 0.00 0.00 0.00 29 1004.6
20260504191534 28 359 0.0 4.8 0.00 0.00 0.00 28 1004.8
20260504190020 28 294 0.0 8.0 0.00 0.00 0.00 28 1004.8
20260504184518 27 272 0.0 3.2 0.00 0.00 0.00 28 1005.0
20260504183012 26 261 1.6 9.7 0.00 0.00 0.00 32 1005.0
20260504181514 26 234 1.6 8.0 0.00 0.00 0.00 34 1005.1
20260504180007 25 261 1.6 8.0 0.00 0.00 0.00 36 1005.2
20260504174501 24 275 1.6 6.4 0.00 0.00 0.00 41 1005.3
20260504173057 23 16 0.0 3.2 0.00 0.00 0.00 42 1005.3
20260504171558 23 20 0.0 0.0 0.00 0.00 0.00 44 1005.3